Weather in Rossosh

Russia / Belgorod Oblast     50°16′11″N   38°26′21″E
temp.,
°C
wind,
m/s
gust,
m/s
humid.,
%
clouds,
%
prec.,
mm/h
press.,
hPa
HPBL,
m
13 april, tue
tue1300:00+12e387281 0.0 1023127
03:00+10ese4107585 0.0 1023184
06:00+10e4107745 0.0 1023192
09:00+14ese61256100 0.0 1023676
12:00+18se711395 0.0 10221313
15:00+17sse61049100 0.0 10221417
18:00+17sse61055100 0.0 1021676
21:00+13sse2279100 0.0 102129
14 april, wed
wed1400:00+11ese118576 0.0 102110
03:00+10e237734 0.0 101935
06:00+8ese227099 0.0 101933
09:00+13se5752100 0.0 1019464
12:00+17sse5747100 0.0 10181447
15:00+18sse5845100 0.1 10162006
18:00+15sw465999 0.0 1016552
21:00+12wsw2373100 0.0 101762
15 april, thu
thu1500:00+11wnw1172100 0.0 101611
03:00+12ne3469100 0.0 101586
06:00+11s1273100 0.1 101440
09:00+10e2388100 0.9 1015144
12:00+16ssw455225 0.8 10141577
15:00+18sw343984 0.9 10132074
18:00+15sw235487 0.0 101347
21:00+14sse115595 0.0 101310
16 april, fri
fri1600:00+11wsw3675100 0.0 1014260
03:00+10sw2384100 0.1 1014117
06:00+9ssw238942 0.1 101471
09:00+12sw347346 0.1 1015770
12:00+15ssw44485 0.0 10151580
15:00+17ssw4538100 0.0 10142194
18:00+15sw3547100 0.0 1015227
21:00+10wnw4765100 0.0 1016250
17 april, sat
sat1700:00+10wnw5862100 0.0 1017442
03:00+8wsw6982100 0.4 1017566
06:00+6wsw5791100 3.1 1017509
09:00+7w5784100 8.4 1018513
12:00+8w468091 0.4 1019801
15:00+10nw4465100 0.4 10201153
18:00+10nnw457299 0.0 1021615
21:00+7nne248384 0.0 1022135